Date,TemperatureHighF,TemperatureAvgF,TemperatureLowF,DewpointHighF,DewpointAvgF,DewpointLowF,HumidityHigh,HumidityAvg,HumidityLow,PressureMaxIn,PressureMinIn,WindSpeedMaxMPH,WindSpeedAvgMPH,GustSpeedMaxMPH,PrecipitationSumIn
2013-4-1,67,54,48,57,51,47,99,89,61,30.11,29.99,10,2,11,0.01
2013-4-2,68,53,44,55,49,44,99,86,57,30.12,30.05,8,2,10,0.00
2013-4-3,77,55,45,56,49,44,99,83,45,30.08,29.95,10,2,11,0.00
2013-4-4,55,52,47,55,51,47,99,98,95,30.06,29.92,8,3,11,0.85
2013-4-5,63,54,50,54,51,48,99,89,64,30.12,30.04,9,2,11,0.01
2013-4-6,68,55,50,55,51,49,99,88,55,30.12,30.07,11,4,14,0.01
2013-4-7,64,53,47,58,49,43,99,87,58,30.12,29.74,12,5,14,0.06
2013-4-8,71,54,43,46,36,30,97,56,22,29.99,29.72,20,9,21,0.00
2013-4-9,82,62,45,44,36,24,77,47,12,30.08,29.99,18,6,19,0.00
2013-4-10,87,70,58,57,47,41,65,46,25,30.14,30.03,13,6,16,0.00
2013-4-11,79,62,48,52,45,39,85,58,24,30.04,29.82,12,5,14,0.00
2013-4-12,75,59,48,52,45,42,83,63,36,29.87,29.80,10,3,11,0.00
2013-4-13,77,60,48,47,42,36,75,53,30,29.86,29.77,14,5,21,0.00
2013-4-14,73,55,43,45,37,24,92,55,22,29.87,29.80,18,6,24,0.00
2013-4-15,61,50,41,44,35,30,99,62,33,29.91,29.79,18,6,24,0.00
2013-4-16,72,54,38,37,30,19,77,47,14,30.13,29.91,11,5,16,0.00
2013-4-17,78,61,46,38,26,19,53,30,13,30.22,30.13,14,5,20,0.00
2013-4-18,79,64,50,43,37,29,58,39,20,30.21,30.16,10,3,12,0.00
2013-4-19,85,66,53,54,47,42,70,52,26,30.19,30.06,11,4,16,0.00
2013-4-20,83,65,51,49,43,34,67,47,18,30.08,29.97,11,5,14,0.00
2013-4-21,87,70,53,53,45,35,69,43,23,30.01,29.93,11,4,11,0.00
2013-4-22,94,74,61,55,45,22,54,38,12,29.96,29.87,12,3,12,0.00
2013-4-23,86,68,45,49,32,18,97,34,12,29.93,29.84,18,5,19,0.00
2013-4-24,63,51,42,49,45,42,99,82,57,29.91,29.78,10,4,11,0.00
2013-4-25,67,53,46,50,46,44,96,80,55,30.08,29.91,12,4,12,0.00
2013-4-26,71,54,46,53,48,45,99,83,52,30.17,30.06,9,3,11,0.00
2013-4-27,77,56,45,56,48,44,99,79,45,30.17,30.03,7,3,9,0.00
2013-4-28,87,66,47,56,50,45,97,62,33,30.03,29.88,8,2,11,0.00
2013-4-29,91,74,60,55,49,46,61,43,24,29.88,29.78,12,5,14,0.00
2013-4-30,90,70,54,47,38,18,67,37,11,29.87,29.76,13,5,15,0.00